EW3148 Weather Reports


time (UTC)temp
C
wind
direction
speed
KPH
gust
KPH
rain 1hr
cm
rain 24hr
cm
rain mn
cm
humidity
%
barometer
mb
20260509232829 30 107 4.8 16.1 0.00 0.08 0.08 47 1005.7
20260509231815 31 101 8.0 16.1 0.00 0.08 0.08 48 1005.6
20260509230829 31 148 3.2 14.5 0.00 0.08 0.08 49 1005.6
20260509225813 32 123 3.2 12.9 0.00 0.08 0.08 51 1005.5
20260509224821 32 98 3.2 12.9 0.00 0.08 0.08 52 1005.5
20260509223845 32 79 1.6 9.7 0.00 0.08 0.08 52 1005.6
20260509221716 32 36 1.6 11.3 0.00 0.08 0.08 54 1005.5
20260509220648 31 117 1.6 9.7 0.00 0.08 0.08 55 1005.5
20260509215654 31 126 3.2 11.3 0.00 0.08 0.08 55 1005.5
20260509214712 30 136 3.2 11.3 0.00 0.08 0.08 56 1005.6
20260509213731 29 150 3.2 9.7 0.00 0.08 0.08 57 1005.8
20260509212732 28 144 6.4 22.5 0.00 0.08 0.08 57 1006.0
20260509210547 27 148 11.3 27.4 0.00 0.08 0.08 56 1006.4
20260509205551 30 119 8.0 27.4 0.00 0.08 0.08 47 1006.4
20260509204610 33 93 1.6 14.5 0.00 0.08 0.08 47 1006.5
20260509202444 33 294 4.8 14.5 0.00 0.08 0.08 49 1006.4
20260509201439 33 260 4.8 11.3 0.00 0.08 0.08 48 1006.6
20260509200411 33 269 1.6 9.7 0.00 0.08 0.08 50 1006.7
20260509195409 33 340 3.2 12.9 0.00 0.08 0.08 51 1006.7
20260509194336 33 246 3.2 16.1 0.00 0.08 0.08 50 1006.7
20260509193328 33 232 3.2 16.1 0.00 0.08 0.08 51 1007.0
20260509192322 32 257 4.8 12.9 0.00 0.08 0.08 53 1007.1
20260509191341 32 300 4.8 17.7 0.00 0.08 0.08 56 1007.1
20260509190316 32 17 1.6 17.7 0.00 0.08 0.08 54 1007.2
20260509185335 32 202 3.2 14.5 0.00 0.08 0.08 56 1007.5
20260509184310 31 187 3.2 16.1 0.00 0.08 0.08 57 1007.6
20260509183235 31 250 4.8 16.1 0.00 0.08 0.08 60 1007.9
20260509182218 31 173 1.6 12.9 0.00 0.08 0.08 59 1008.0
20260509181149 30 234 1.6 11.3 0.00 0.08 0.08 64 1008.1
20260509180137 31 267 1.6 11.3 0.00 0.08 0.08 63 1008.1
20260509175201 31 273 0.0 4.8 0.00 0.08 0.08 63 1008.3
20260509174207 30 348 1.6 8.0 0.00 0.08 0.08 65 1008.6
20260509173136 30 223 1.6 14.5 0.00 0.08 0.08 66 1008.6
20260509172134 30 197 3.2 14.5 0.00 0.08 0.08 68 1008.8
20260509171135 29 239 3.2 8.0 0.00 0.08 0.08 69 1008.7
20260509170114 29 238 1.6 9.7 0.00 0.08 0.08 71 1008.8
20260509162855 27 216 4.8 14.5 0.00 0.08 0.08 77 1008.9
20260509160749 26 273 3.2 12.9 0.00 0.08 0.08 83 1008.7
20260509155721 26 186 3.2 12.9 0.00 0.08 0.08 85 1008.9
20260509154703 25 242 1.6 9.7 0.00 0.08 0.08 90 1008.9
20260509153644 25 250 1.6 9.7 0.00 0.08 0.08 93 1009.0
20260509152634 23 242 4.8 14.5 0.00 0.08 0.08 94 1009.2
20260509151620 23 191 6.4 14.5 0.00 0.08 0.08 95 1009.2
20260509145453 22 159 4.8 14.5 0.00 0.08 0.08 95 1009.0
20260509144506 22 203 4.8 14.5 0.00 0.08 0.08 96 1008.7
20260509143510 22 195 1.6 12.9 0.00 0.08 0.08 96 1008.7
20260509142535 22 159 3.2 12.9 0.00 0.08 0.08 96 1008.4
20260509141535 22 189 4.8 14.5 0.00 0.08 0.08 96 1008.3
20260509140530 22 168 4.8 14.5 0.00 0.08 0.08 96 1008.2
20260509135509 22 168 0.0 4.8 0.00 0.08 0.08 96 1008.5
20260509134452 22 5 0.0 0.0 0.00 0.08 0.08 96 1008.6
20260509133504 22 5 0.0 3.2 0.00 0.08 0.08 96 1008.9
20260509132436 22 340 1.6 4.8 0.00 0.08 0.08 96 1009.0
20260509131459 22 19 0.0 8.0 0.00 0.08 0.08 96 1009.0
20260509130506 22 346 1.6 8.0 0.00 0.08 0.08 96 1008.6
20260509125444 22 308 1.6 6.4 0.00 0.08 0.08 96 1008.3
20260509124440 22 5 0.0 6.4 0.00 0.08 0.08 96 1008.4
20260509123413 22 5 0.0 1.6 0.00 0.08 0.08 96 1008.4
20260509121243 22 346 0.0 0.0 0.00 0.08 0.08 95 1008.5
20260509120243 22 346 0.0 1.6 0.00 0.08 0.08 95 1008.7
20260509115308 22 355 0.0 1.6 0.00 0.08 0.08 95 1008.6
20260509114317 22 319 0.0 6.4 0.00 0.08 0.08 95 1008.7
20260509113257 22 5 1.6 4.8 0.00 0.05 0.05 95 1009.3
20260509112251 22 41 0.0 11.3 0.00 0.05 0.05 95 1009.4
20260509111235 22 46 1.6 11.3 0.00 0.05 0.05 95 1009.4
20260509110205 22 43 1.6 8.0 0.00 0.05 0.05 95 1009.3
20260509105145 22 71 1.6 8.0 0.00 0.03 0.03 95 1009.5
20260509104135 22 5 0.0 4.8 0.00 0.03 0.03 95 1009.6
20260509101939 22 41 0.0 3.2 0.00 0.03 0.03 95 1009.0
20260509101002 22 96 0.0 1.6 0.00 0.03 0.03 95 1008.7
20260509095942 22 96 0.0 1.6 0.00 0.03 0.03 95 1008.5
20260509094957 22 96 0.0 3.2 0.00 0.03 0.03 95 1008.2
20260509094014 22 83 0.0 1.6 0.00 0.03 0.03 95 1008.1
20260509093014 22 83 0.0 0.0 0.00 0.03 0.03 94 1008.3
20260509092037 22 100 0.0 3.2 0.00 0.03 0.03 94 1008.0
20260509085920 22 80 0.0 0.0 0.00 0.00 0.00 94 1008.0
20260509084907 22 80 0.0 1.6 0.00 0.00 0.00 94 1008.2
20260509083850 22 49 0.0 3.2 0.00 0.00 0.00 94 1008.3
20260509082847 22 77 0.0 1.6 0.00 0.00 0.00 94 1008.4
20260509081840 22 76 0.0 0.0 0.00 0.00 0.00 94 1008.4
20260509075736 22 78 0.0 0.0 0.00 0.00 0.00 93 1008.3
20260509072431 22 125 0.0 6.4 0.00 0.00 0.00 93 1008.2
20260509071417 22 172 0.0 3.2 0.00 0.00 0.00 93 1008.3
20260509070442 22 180 0.0 4.8 0.00 0.00 0.00 93 1008.5
20260509065506 22 169 0.0 4.8 0.00 0.00 0.00 93 1008.6
20260509064440 22 150 3.2 11.3 0.00 0.00 0.00 93 1008.5
20260509063422 22 175 1.6 16.1 0.00 0.00 0.00 92 1008.2
20260509062445 22 182 3.2 16.1 0.00 0.00 0.00 92 1008.0
20260509061414 22 179 4.8 14.5 0.00 0.00 0.00 92 1008.1
20260509060351 22 186 3.2 20.9 0.00 0.00 0.00 92 1008.1
20260509055411 22 195 4.8 20.9 0.00 0.00 0.00 91 1008.1
20260509053317 22 217 6.4 17.7 0.00 0.00 0.00 92 1008.0
20260509052319 22 184 4.8 16.1 0.00 0.00 0.00 92 1008.2
20260509051311 22 159 3.2 12.9 0.00 0.00 0.00 92 1008.0
20260509050316 22 166 3.2 11.3 0.00 0.00 0.00 92 1007.8
20260509045307 22 140 1.6 8.0 0.00 0.00 0.00 91 1007.8
20260509044325 22 180 3.2 6.4 0.00 0.00 0.00 91 1007.7
20260509043328 22 174 3.2 9.7 0.00 0.00 0.00 91 1007.7
20260509042306 22 164 3.2 9.7 0.00 0.00 0.00 90 1007.8
20260509041306 22 132 4.8 11.3 0.00 0.00 0.00 90 1007.9
20260509040323 22 173 4.8 14.5 0.00 0.00 0.00 89 1008.1
20260509034131 23 179 4.8 9.7 0.00 0.00 0.00 88 1008.2
20260509033111 23 149 3.2 8.0 0.00 0.00 0.00 88 1008.2
20260509025740 23 170 4.8 11.3 0.00 0.00 0.00 87 1007.6
20260509024727 23 165 3.2 9.7 0.00 0.00 0.00 87 1007.7
20260509023731 23 157 1.6 6.4 0.00 0.00 0.00 86 1007.6
20260509022731 23 143 3.2 6.4 0.00 0.00 0.00 87 1007.7
20260509021722 23 181 1.6 9.7 0.00 0.00 0.00 86 1007.5
20260509020713 23 163 3.2 9.7 0.00 0.00 0.00 86 1007.3
20260509015723 23 112 3.2 11.3 0.00 0.00 0.00 85 1007.0
20260509014719 23 140 4.8 12.9 0.00 0.00 0.00 84 1006.8
20260509012620 24 98 3.2 11.3 0.00 0.00 0.00 83 1006.9
20260509011608 24 134 3.2 6.4 0.00 0.00 0.00 82 1006.8
20260509010622 24 149 1.6 12.9 0.00 0.00 0.00 82 1006.9
20260509005634 25 119 1.6 12.9 0.00 0.00 0.00 81 1006.9
20260509003515 25 171 3.2 9.7 0.00 0.00 0.00 79 1006.8
20260509002446 25 177 1.6 9.7 0.00 0.00 0.00 79 1006.8
20260509001428 25 118 3.2 9.7 0.00 0.00 0.00 78 1006.9
20260508234145 25 144 4.8 12.9 0.00 0.00 0.00 77 1006.9